Zurück zum Katalog

STARLINK-4554

AktivKommunikationVLEO
NORAD 53626·PAYLOAD·🇺🇸 United States

Gestartet Aug 28, 2022 von Cape Canaveral Space Force Station

Loading…

Nächste Überflüge (nächste 24 Stunden)

TLE

AktuellSource: CelesTrak SupGP

Epoche: Sep 14, 2026, 20:45 UTC

1 53626C 22104AQ  26257.86506944 -.00024593  00000+0 -74642-3 0  2572
2 53626  53.1579  94.3548 0001364  89.0722 332.7049 15.33553813    15

Verfolge STARLINK-4554 in Echtzeit mit AllMySat

Download on the App Store